• In Czech Republic
  • List of Countries
  • For 7 days
  • Water Temperature
  • Satellite Maps
  • Weather Map
  • Weather Widgets
  • user-avatar
    Login

    Hourly Weather Shagatay

    Today, 21 July, Saturday

    Time Temperature Precipitation Wind Pressure Humidity
    00:00 +28°C° 0.2 mm 5 mps 751 mmHg 49%
    01:00 +28°C° 0.5 mm 4 mps 751 mmHg 53%
    02:00 +27°C° 0.5 mm 4 mps 751 mmHg 57%
    03:00 +26°C° 0 mm 3 mps 751 mmHg 59%
    04:00 +27°C° 0.3 mm 3 mps 751 mmHg 59%
    05:00 +27°C° 0.3 mm 3 mps 751 mmHg 58%
    06:00 +28°C° 0.3 mm 3 mps 751 mmHg 57%
    07:00 +29°C° 0.1 mm 2 mps 751 mmHg 52%
    08:00 +31°C° 0.1 mm 2 mps 751 mmHg 47%
    09:00 +32°C° 0.1 mm 2 mps 751 mmHg 41%
    10:00 +34°C° 0 mm 2 mps 751 mmHg 38%
    11:00 +35°C° 0 mm 2 mps 751 mmHg 35%
    12:00 +36°C° 0 mm 3 mps 751 mmHg 32%
    13:00 +36°C° 0 mm 2 mps 750 mmHg 33%
    14:00 +36°C° 0 mm 2 mps 750 mmHg 33%
    15:00 +36°C° 0 mm 2 mps 750 mmHg 34%
    16:00 +35°C° 0 mm 2 mps 750 mmHg 37%
    17:00 +34°C° 0 mm 3 mps 750 mmHg 40%
    18:00 +33°C° 0 mm 4 mps 750 mmHg 43%
    19:00 +32°C° 0.3 mm 5 mps 750 mmHg 49%
    20:00 +30°C° 0.3 mm 5 mps 751 mmHg 54%
    21:00 +28°C° 0.3 mm 6 mps 751 mmHg 60%
    22:00 +27°C° 1.7 mm 7 mps 751 mmHg 65%
    23:00 +26°C° 1.7 mm 7 mps 751 mmHg 69%

    Tomorrow, 22 July, Sunday

    Time Temperature Precipitation Wind Pressure Humidity
    00:00 +24°C° 1.7 mm 8 mps 751 mmHg 74%
    01:00 +23°C° 0.2 mm 6 mps 751 mmHg 75%
    02:00 +23°C° 0.2 mm 5 mps 751 mmHg 77%
    03:00 +24°C° 0.2 mm 3 mps 751 mmHg 79%
    04:00 +23°C° 0.1 mm 4 mps 751 mmHg 78%
    05:00 +23°C° 0.1 mm 4 mps 751 mmHg 76%
    06:00 +23°C° 0.1 mm 5 mps 752 mmHg 75%
    07:00 +25°C° 0.2 mm 5 mps 752 mmHg 71%
    08:00 +26°C° 0.2 mm 5 mps 752 mmHg 67%
    09:00 +27°C° 0.2 mm 4 mps 752 mmHg 63%
    10:00 +28°C° 0 mm 5 mps 752 mmHg 61%
    11:00 +28°C° 0 mm 5 mps 752 mmHg 60%
    12:00 +28°C° 0 mm 6 mps 752 mmHg 58%
    13:00 +29°C° 0.6 mm 6 mps 752 mmHg 56%
    14:00 +30°C° 0.6 mm 6 mps 752 mmHg 53%
    15:00 +30°C° 0.6 mm 6 mps 752 mmHg 51%
    16:00 +30°C° 0 mm 6 mps 753 mmHg 50%
    17:00 +30°C° 0 mm 6 mps 753 mmHg 50%
    18:00 +30°C° 0 mm 6 mps 753 mmHg 50%
    19:00 +28°C° 0.2 mm 6 mps 753 mmHg 51%
    20:00 +27°C° 0.2 mm 6 mps 753 mmHg 52%
    21:00 +26°C° 0.2 mm 6 mps 754 mmHg 53%
    22:00 +26°C° 0 mm 7 mps 754 mmHg 51%
    23:00 +24°C° 0 mm 7 mps 754 mmHg 49%

    Day after tomorrow, 23 July, Monday

    Time Temperature Precipitation Wind Pressure Humidity
    00:00 +24°C° 0 mm 7 mps 754 mmHg 47%
    01:00 +23°C° 0 mm 7 mps 755 mmHg 46%
    02:00 +23°C° 0 mm 7 mps 755 mmHg 44%
    03:00 +23°C° 0 mm 7 mps 755 mmHg 42%
    04:00 +22°C° 0 mm 7 mps 755 mmHg 42%
    05:00 +22°C° 0 mm 8 mps 756 mmHg 42%
    06:00 +22°C° 0 mm 8 mps 756 mmHg 42%
    07:00 +23°C° 0 mm 8 mps 756 mmHg 41%
    08:00 +23°C° 0 mm 8 mps 756 mmHg 40%
    09:00 +24°C° 0 mm 8 mps 757 mmHg 39%
    10:00 +26°C° 0 mm 8 mps 757 mmHg 38%
    11:00 +27°C° 0 mm 8 mps 757 mmHg 36%
    12:00 +28°C° 0 mm 7 mps 757 mmHg 35%
    13:00 +29°C° 0 mm 7 mps 757 mmHg 33%
    14:00 +30°C° 0 mm 7 mps 757 mmHg 32%
    15:00 +32°C° 0 mm 7 mps 757 mmHg 31%
    16:00 +30°C° 0.1 mm 7 mps 757 mmHg 31%
    17:00 +30°C° 0.1 mm 6 mps 757 mmHg 31%
    18:00 +30°C° 0.1 mm 6 mps 757 mmHg 31%
    19:00 +28°C° 0.1 mm 6 mps 757 mmHg 32%
    20:00 +27°C° 0.1 mm 6 mps 757 mmHg 33%
    21:00 +26°C° 0.1 mm 6 mps 758 mmHg 34%
    22:00 +26°C° 0 mm 6 mps 758 mmHg 34%
    23:00 +24°C° 0 mm 6 mps 758 mmHg 35%

    24 July, Tuesday

    Time Temperature Precipitation Wind Pressure Humidity
    00:00 +24°C° 0 mm 7 mps 758 mmHg 35%
    01:00 +24°C° 0 mm 7 mps 758 mmHg 35%
    02:00 +23°C° 0 mm 7 mps 759 mmHg 35%
    03:00 +23°C° 0 mm 7 mps 759 mmHg 36%
    04:00 +23°C° 0 mm 7 mps 759 mmHg 36%
    05:00 +23°C° 0 mm 7 mps 759 mmHg 36%
    06:00 +23°C° 0 mm 7 mps 760 mmHg 37%
    07:00 +26°C° 0 mm 7 mps 760 mmHg 34%
    08:00 +27°C° 0 mm 7 mps 760 mmHg 31%
    09:00 +29°C° 0 mm 7 mps 760 mmHg 28%
    10:00 +30°C° 0 mm 7 mps 760 mmHg 26%
    11:00 +32°C° 0 mm 7 mps 760 mmHg 24%
    12:00 +33°C° 0 mm 7 mps 760 mmHg 22%
    13:00 +33°C° 0 mm 7 mps 760 mmHg 21%
    14:00 +33°C° 0 mm 6 mps 760 mmHg 21%
    15:00 +34°C° 0 mm 6 mps 759 mmHg 20%
    16:00 +33°C° 0 mm 6 mps 759 mmHg 21%
    17:00 +33°C° 0 mm 5 mps 759 mmHg 22%
    18:00 +32°C° 0 mm 4 mps 760 mmHg 23%
    19:00 +30°C° 0 mm 4 mps 760 mmHg 26%
    20:00 +28°C° 0 mm 5 mps 760 mmHg 30%
    21:00 +27°C° 0 mm 5 mps 760 mmHg 33%
    22:00 +26°C° 0 mm 5 mps 760 mmHg 36%
    23:00 +26°C° 0 mm 6 mps 760 mmHg 40%

    25 July, Wednesday

    Time Temperature Precipitation Wind Pressure Humidity
    00:00 +26°C° 0 mm 6 mps 760 mmHg 43%
    01:00 +26°C° 0 mm 6 mps 761 mmHg 45%
    02:00 +24°C° 0 mm 6 mps 761 mmHg 47%
    03:00 +24°C° 0 mm 6 mps 761 mmHg 48%
    04:00 +24°C° 0 mm 6 mps 761 mmHg 48%
    05:00 +24°C° 0 mm 6 mps 761 mmHg 48%
    06:00 +26°C° 0 mm 5 mps 762 mmHg 48%
    07:00 +27°C° 0 mm 6 mps 762 mmHg 45%
    08:00 +28°C° 0 mm 6 mps 762 mmHg 42%
    09:00 +29°C° 0 mm 6 mps 762 mmHg 39%
    10:00 +30°C° 0 mm 6 mps 762 mmHg 37%
    11:00 +32°C° 0 mm 6 mps 762 mmHg 34%
    12:00 +33°C° 0 mm 5 mps 762 mmHg 32%
    13:00 +33°C° 0 mm 5 mps 762 mmHg 31%
    14:00 +33°C° 0 mm 4 mps 761 mmHg 30%
    15:00 +33°C° 0 mm 4 mps 761 mmHg 30%
    16:00 +31°C° 0 mm 3 mps 761 mmHg 31%
    17:00 +31°C° 0 mm 3 mps 761 mmHg 33%
    18:00 +30°C° 0 mm 3 mps 761 mmHg 35%
    19:00 +30°C° 0 mm 3 mps 761 mmHg 36%
    20:00 +29°C° 0 mm 3 mps 761 mmHg 38%
    21:00 +28°C° 0 mm 4 mps 761 mmHg 40%
    22:00 +27°C° 0 mm 4 mps 761 mmHg 42%
    23:00 +27°C° 0 mm 4 mps 761 mmHg 44%

    26 July, Thursday

    Time Temperature Precipitation Wind Pressure Humidity
    00:00 +27°C° 0 mm 4 mps 761 mmHg 47%
    01:00 +26°C° 0 mm 4 mps 762 mmHg 49%
    02:00 +26°C° 0 mm 4 mps 762 mmHg 51%
    03:00 +25°C° 0 mm 4 mps 762 mmHg 53%
    04:00 +26°C° 0 mm 4 mps 762 mmHg 52%
    05:00 +26°C° 0 mm 5 mps 762 mmHg 52%
    06:00 +26°C° 0 mm 5 mps 762 mmHg 51%
    07:00 +28°C° 0 mm 5 mps 762 mmHg 46%
    08:00 +30°C° 0 mm 5 mps 762 mmHg 40%
    09:00 +33°C° 0 mm 5 mps 762 mmHg 34%
    10:00 +34°C° 0 mm 5 mps 762 mmHg 31%
    11:00 +35°C° 0 mm 5 mps 762 mmHg 29%
    12:00 +36°C° 0 mm 5 mps 762 mmHg 26%
    13:00 +36°C° 0 mm 5 mps 761 mmHg 26%
    14:00 +36°C° 0 mm 5 mps 761 mmHg 26%
    15:00 +36°C° 0 mm 5 mps 761 mmHg 26%
    16:00 +35°C° 0 mm 5 mps 761 mmHg 27%
    17:00 +35°C° 0 mm 6 mps 761 mmHg 29%
    18:00 +34°C° 0 mm 6 mps 761 mmHg 31%
    19:00 +33°C° 0 mm 6 mps 762 mmHg 33%
    20:00 +30°C° 0 mm 6 mps 762 mmHg 35%
    21:00 +29°C° 0 mm 6 mps 762 mmHg 37%
    22:00 +28°C° 0 mm 5 mps 762 mmHg 37%
    23:00 +27°C° 0 mm 5 mps 762 mmHg 38%
    Show more